Time,TemperatureF,DewpointF,PressureIn,WindDirection,WindDirectionDegrees,WindSpeedMPH,WindSpeedGustMPH,Humidity,HourlyPrecipIn,Conditions,Clouds,dailyrainin,SoftwareType,DateUTC
2013-04-13 00:03:00,28.0,-99.9,-100.00,North,-999,-999.0,-999.0,-999,0.00,,,0.06,,2013-04-13 05:03:00,
2013-04-13 00:12:00,28.0,-99.9,-100.00,North,-999,-999.0,-999.0,-999,0.00,,,0.06,,2013-04-13 05:12:00,
2013-04-13 00:30:00,28.0,-99.9,-100.00,North,-999,-999.0,-999.0,-999,0.00,,,0.06,,2013-04-13 05:30:00,
2013-04-13 00:53:00,28.0,-99.9,-100.00,North,-999,-999.0,-999.0,-999,0.00,,,0.06,,2013-04-13 05:53:00,
2013-04-13 01:03:00,28.0,-99.9,-100.00,North,-999,-999.0,-999.0,-999,0.00,,,0.06,,2013-04-13 06:03:00,
2013-04-13 01:12:00,28.0,-99.9,-100.00,North,-999,-999.0,-999.0,-999,0.00,,,0.06,,2013-04-13 06:12:00,
2013-04-13 01:25:00,28.0,-99.9,-100.00,North,-999,-999.0,-999.0,-999,0.00,,,0.06,,2013-04-13 06:25:00,
2013-04-13 01:30:00,28.0,-99.9,-100.00,North,-999,-999.0,-999.0,-999,0.00,,,0.06,,2013-04-13 06:30:00,
2013-04-13 01:58:00,28.0,-99.9,-100.00,North,-999,-999.0,-999.0,-999,0.00,,,0.06,,2013-04-13 06:58:00,
2013-04-13 02:09:00,28.0,-99.9,-100.00,North,-999,-999.0,-999.0,-999,0.00,,,0.06,,2013-04-13 07:09:00,
2013-04-13 02:17:00,28.0,-99.9,-100.00,North,-999,-999.0,-999.0,-999,0.00,,,0.06,,2013-04-13 07:17:00,
2013-04-13 02:25:00,28.0,-99.9,-100.00,North,-999,-999.0,-999.0,-999,0.00,,,0.06,,2013-04-13 07:25:00,
2013-04-13 02:30:00,27.0,-99.9,-100.00,North,-999,-999.0,-999.0,-999,0.00,,,0.06,,2013-04-13 07:30:00,
2013-04-13 03:00:00,27.0,-99.9,-100.00,North,-999,-999.0,-999.0,-999,0.00,,,0.06,,2013-04-13 08:00:00,
2013-04-13 03:09:00,27.0,-99.9,-100.00,North,-999,-999.0,-999.0,-999,0.00,,,0.06,,2013-04-13 08:09:00,
2013-04-13 03:27:00,27.0,-99.9,-100.00,North,-999,-999.0,-999.0,-999,0.00,,,0.06,,2013-04-13 08:27:00,
2013-04-13 03:56:00,26.0,-99.9,-100.00,North,-999,-999.0,-999.0,-999,0.00,,,0.06,,2013-04-13 08:56:00,
2013-04-13 04:09:00,26.0,-99.9,-100.00,North,-999,-999.0,-999.0,-999,0.00,,,0.06,,2013-04-13 09:09:00,
2013-04-13 04:16:00,26.0,-99.9,-100.00,North,-999,-999.0,-999.0,-999,0.00,,,0.06,,2013-04-13 09:16:00,
2013-04-13 04:30:00,27.0,-99.9,-100.00,North,-999,-999.0,-999.0,-999,0.00,,,0.06,,2013-04-13 09:30:00,
2013-04-13 04:58:00,27.0,-99.9,-100.00,North,-999,-999.0,-999.0,-999,0.00,,,0.06,,2013-04-13 09:58:00,
2013-04-13 05:08:00,27.0,-99.9,-100.00,North,-999,-999.0,-999.0,-999,0.00,,,0.06,,2013-04-13 10:08:00,
2013-04-13 05:17:00,27.0,-99.9,-100.00,North,-999,-999.0,-999.0,-999,0.00,,,0.06,,2013-04-13 10:17:00,
2013-04-13 05:26:00,27.0,-99.9,-100.00,North,-999,-999.0,-999.0,-999,0.00,,,0.06,,2013-04-13 10:26:00,
2013-04-13 05:30:00,26.0,-99.9,-100.00,North,-999,-999.0,-999.0,-999,0.00,,,0.06,,2013-04-13 10:30:00,
2013-04-13 05:58:00,26.0,-99.9,-100.00,North,-999,-999.0,-999.0,-999,0.00,,,0.06,,2013-04-13 10:58:00,
2013-04-13 06:09:00,26.0,-99.9,-100.00,North,-999,-999.0,-999.0,-999,0.00,,,0.06,,2013-04-13 11:09:00,
2013-04-13 06:14:00,26.0,-99.9,-100.00,North,-999,-999.0,-999.0,-999,0.00,,,0.06,,2013-04-13 11:14:00,
2013-04-13 06:25:00,26.0,-99.9,-100.00,North,-999,-999.0,-999.0,-999,0.00,,,0.06,,2013-04-13 11:25:00,
2013-04-13 06:30:00,26.0,-99.9,-100.00,North,-999,-999.0,-999.0,-999,0.00,,,0.06,,2013-04-13 11:30:00,
2013-04-13 06:55:00,26.0,-99.9,-100.00,North,-999,-999.0,-999.0,-999,0.00,,,0.06,,2013-04-13 11:55:00,
2013-04-13 07:09:00,26.0,-99.9,-100.00,North,-999,-999.0,-999.0,-999,0.00,,,0.06,,2013-04-13 12:09:00,
2013-04-13 07:18:00,26.0,-99.9,-100.00,North,-999,-999.0,-999.0,-999,0.00,,,0.06,,2013-04-13 12:18:00,
2013-04-13 07:27:00,26.0,-99.9,-100.00,North,-999,-999.0,-999.0,-999,0.00,,,0.06,,2013-04-13 12:27:00,
2013-04-13 07:30:00,26.0,-99.9,-100.00,North,-999,-999.0,-999.0,-999,0.00,,,0.06,,2013-04-13 12:30:00,
2013-04-13 07:59:00,26.0,-99.9,-100.00,North,-999,-999.0,-999.0,-999,0.00,,,0.06,,2013-04-13 12:59:00,
2013-04-13 08:10:00,26.0,-99.9,-100.00,North,-999,-999.0,-999.0,-999,0.00,,,0.06,,2013-04-13 13:10:00,
2013-04-13 08:18:00,26.0,-99.9,-100.00,North,-999,-999.0,-999.0,-999,0.00,,,0.06,,2013-04-13 13:18:00,
2013-04-13 08:30:00,27.0,-99.9,-100.00,North,-999,-999.0,-999.0,-999,0.00,,,0.06,,2013-04-13 13:30:00,
2013-04-13 08:59:00,27.0,-99.9,-100.00,North,-999,-999.0,-999.0,-999,0.00,,,0.06,,2013-04-13 13:59:00,
2013-04-13 09:08:00,27.0,-99.9,-100.00,North,-999,-999.0,-999.0,-999,0.00,,,0.06,,2013-04-13 14:08:00,
2013-04-13 09:25:00,27.0,-99.9,-100.00,North,-999,-999.0,-999.0,-999,0.00,,,0.06,,2013-04-13 14:25:00,
2013-04-13 09:30:00,29.0,-99.9,-100.00,North,-999,-999.0,-999.0,-999,0.00,,,0.06,,2013-04-13 14:30:00,
2013-04-13 10:01:00,29.0,-99.9,-100.00,North,-999,-999.0,-999.0,-999,0.00,,,0.06,,2013-04-13 15:01:00,
2013-04-13 10:08:00,29.0,-99.9,-100.00,North,-999,-999.0,-999.0,-999,0.00,,,0.06,,2013-04-13 15:08:00,
2013-04-13 10:16:00,29.0,-99.9,-100.00,North,-999,-999.0,-999.0,-999,0.00,,,0.06,,2013-04-13 15:16:00,
2013-04-13 10:30:00,28.0,-99.9,-100.00,North,-999,-999.0,-999.0,-999,0.00,,,0.06,,2013-04-13 15:30:00,
2013-04-13 11:00:00,28.0,-99.9,-100.00,North,-999,-999.0,-999.0,-999,0.00,,,0.06,,2013-04-13 16:00:00,
2013-04-13 11:09:00,28.0,-99.9,-100.00,North,-999,-999.0,-999.0,-999,0.00,,,0.06,,2013-04-13 16:09:00,
2013-04-13 11:19:00,28.0,-99.9,-100.00,North,-999,-999.0,-999.0,-999,0.00,,,0.06,,2013-04-13 16:19:00,
2013-04-13 11:26:00,28.0,-99.9,-100.00,North,-999,-999.0,-999.0,-999,0.00,,,0.06,,2013-04-13 16:26:00,
2013-04-13 12:03:00,33.0,-99.9,-100.00,North,-999,-999.0,-999.0,-999,0.02,,,0.08,,2013-04-13 17:03:00,
2013-04-13 12:10:00,33.0,-99.9,-100.00,North,-999,-999.0,-999.0,-999,0.02,,,0.08,,2013-04-13 17:10:00,
2013-04-13 12:23:00,33.0,-99.9,-100.00,North,-999,-999.0,-999.0,-999,0.02,,,0.08,,2013-04-13 17:23:00,
2013-04-13 12:30:00,35.0,-99.9,-100.00,North,-999,-999.0,-999.0,-999,0.02,,,0.09,,2013-04-13 17:30:00,
2013-04-13 13:05:00,35.0,-99.9,-100.00,North,-999,-999.0,-999.0,-999,0.02,,,0.09,,2013-04-13 18:05:00,
2013-04-13 13:18:00,35.0,-99.9,-100.00,North,-999,-999.0,-999.0,-999,0.02,,,0.09,,2013-04-13 18:18:00,
2013-04-13 13:26:00,35.0,-99.9,-100.00,North,-999,-999.0,-999.0,-999,0.02,,,0.09,,2013-04-13 18:26:00,
2013-04-13 13:30:00,38.0,-99.9,-100.00,North,-999,-999.0,-999.0,-999,0.05,,,-99.99,,2013-04-13 18:30:00,
2013-04-13 13:53:00,38.0,-99.9,-100.00,North,-999,-999.0,-999.0,-999,0.05,,,-99.99,,2013-04-13 18:53:00,
2013-04-13 14:03:00,38.0,-99.9,-100.00,North,-999,-999.0,-999.0,-999,0.05,,,-99.99,,2013-04-13 19:03:00,
2013-04-13 14:13:00,38.0,-99.9,-100.00,North,-999,-999.0,-999.0,-999,0.05,,,-99.99,,2013-04-13 19:13:00,
2013-04-13 14:30:00,34.0,-99.9,-100.00,North,-999,-999.0,-999.0,-999,0.10,,,0.22,,2013-04-13 19:30:00,
2013-04-13 14:53:00,34.0,-99.9,-100.00,North,-999,-999.0,-999.0,-999,0.10,,,0.22,,2013-04-13 19:53:00,
2013-04-13 15:02:00,34.0,-99.9,-100.00,North,-999,-999.0,-999.0,-999,0.10,,,0.22,,2013-04-13 20:02:00,
2013-04-13 15:13:00,34.0,-99.9,-100.00,North,-999,-999.0,-999.0,-999,0.10,,,0.22,,2013-04-13 20:13:00,
2013-04-13 15:22:00,34.0,-99.9,-100.00,North,-999,-999.0,-999.0,-999,0.10,,,0.22,,2013-04-13 20:22:00,
2013-04-13 15:30:00,37.0,-99.9,-100.00,North,-999,-999.0,-999.0,-999,0.14,,,0.36,,2013-04-13 20:30:00,
2013-04-13 15:53:00,37.0,-99.9,-100.00,North,-999,-999.0,-999.0,-999,0.14,,,0.36,,2013-04-13 20:53:00,
2013-04-13 16:02:00,37.0,-99.9,-100.00,North,-999,-999.0,-999.0,-999,0.14,,,0.36,,2013-04-13 21:02:00,
2013-04-13 16:12:00,37.0,-99.9,-100.00,North,-999,-999.0,-999.0,-999,0.14,,,0.36,,2013-04-13 21:12:00,
2013-04-13 16:22:00,37.0,-99.9,-100.00,North,-999,-999.0,-999.0,-999,0.14,,,0.36,,2013-04-13 21:22:00,
2013-04-13 16:30:00,35.0,-99.9,-100.00,North,-999,-999.0,-999.0,-999,0.10,,,0.44,,2013-04-13 21:30:00,
2013-04-13 16:53:00,35.0,-99.9,-100.00,North,-999,-999.0,-999.0,-999,0.10,,,0.44,,2013-04-13 21:53:00,
2013-04-13 17:03:00,35.0,-99.9,-100.00,North,-999,-999.0,-999.0,-999,0.10,,,0.44,,2013-04-13 22:03:00,
2013-04-13 17:13:00,35.0,-99.9,-100.00,North,-999,-999.0,-999.0,-999,0.10,,,0.44,,2013-04-13 22:13:00,
2013-04-13 17:23:00,35.0,-99.9,-100.00,North,-999,-999.0,-999.0,-999,0.10,,,0.44,,2013-04-13 22:23:00,
2013-04-13 17:30:00,35.0,-99.9,-100.00,North,-999,-999.0,-999.0,-999,0.05,,,0.48,,2013-04-13 22:30:00,
2013-04-13 17:53:00,35.0,-99.9,-100.00,North,-999,-999.0,-999.0,-999,0.05,,,0.48,,2013-04-13 22:53:00,
2013-04-13 18:12:00,35.0,-99.9,-100.00,North,-999,-999.0,-999.0,-999,0.05,,,0.48,,2013-04-13 23:12:00,
2013-04-13 18:22:00,35.0,-99.9,-100.00,North,-999,-999.0,-999.0,-999,0.05,,,0.48,,2013-04-13 23:22:00,
2013-04-13 18:30:00,39.0,-99.9,-100.00,North,-999,-999.0,-999.0,-999,0.02,,,0.50,,2013-04-13 23:30:00,
2013-04-13 18:54:00,39.0,-99.9,-100.00,North,-999,-999.0,-999.0,-999,0.02,,,0.50,,2013-04-13 23:54:00,
2013-04-13 19:03:00,39.0,-99.9,-100.00,North,-999,-999.0,-999.0,-999,0.02,,,0.50,,2013-04-14 00:03:00,
2013-04-13 19:12:00,39.0,-99.9,-100.00,North,-999,-999.0,-999.0,-999,0.02,,,0.50,,2013-04-14 00:12:00,
2013-04-13 19:23:00,39.0,-99.9,-100.00,North,-999,-999.0,-999.0,-999,0.02,,,0.50,,2013-04-14 00:23:00,
2013-04-13 19:53:00,34.0,-99.9,-100.00,North,-999,-999.0,-999.0,-999,0.01,,,0.51,,2013-04-14 00:53:00,
2013-04-13 20:02:00,34.0,-99.9,-100.00,North,-999,-999.0,-999.0,-999,0.01,,,0.51,,2013-04-14 01:02:00,
2013-04-13 20:13:00,34.0,-99.9,-100.00,North,-999,-999.0,-999.0,-999,0.01,,,0.51,,2013-04-14 01:13:00,
2013-04-13 20:30:00,37.0,-99.9,-100.00,North,-999,-999.0,-999.0,-999,0.00,,,0.51,,2013-04-14 01:30:00,
2013-04-13 20:53:00,37.0,-99.9,-100.00,North,-999,-999.0,-999.0,-999,0.00,,,0.51,,2013-04-14 01:53:00,
2013-04-13 21:03:00,37.0,-99.9,-100.00,North,-999,-999.0,-999.0,-999,0.00,,,0.51,,2013-04-14 02:03:00,
2013-04-13 21:13:00,37.0,-99.9,-100.00,North,-999,-999.0,-999.0,-999,0.00,,,0.51,,2013-04-14 02:13:00,
2013-04-13 21:23:00,37.0,-99.9,-100.00,North,-999,-999.0,-999.0,-999,0.00,,,0.51,,2013-04-14 02:23:00,
2013-04-13 21:30:00,36.0,-99.9,-100.00,North,-999,-999.0,-999.0,-999,0.00,,,0.51,,2013-04-14 02:30:00,
2013-04-13 21:54:00,36.0,-99.9,-100.00,North,-999,-999.0,-999.0,-999,0.00,,,0.51,,2013-04-14 02:54:00,
2013-04-13 22:03:00,36.0,-99.9,-100.00,North,-999,-999.0,-999.0,-999,0.00,,,0.51,,2013-04-14 03:03:00,
2013-04-13 22:13:00,36.0,-99.9,-100.00,North,-999,-999.0,-999.0,-999,0.00,,,0.51,,2013-04-14 03:13:00,
2013-04-13 22:23:00,36.0,-99.9,-100.00,North,-999,-999.0,-999.0,-999,0.00,,,0.51,,2013-04-14 03:23:00,
2013-04-13 22:30:00,37.0,-99.9,-100.00,North,-999,-999.0,-999.0,-999,0.00,,,0.51,,2013-04-14 03:30:00,
2013-04-13 22:54:00,37.0,-99.9,-100.00,North,-999,-999.0,-999.0,-999,0.00,,,0.51,,2013-04-14 03:54:00,
2013-04-13 23:03:00,37.0,-99.9,-100.00,North,-999,-999.0,-999.0,-999,0.00,,,0.51,,2013-04-14 04:03:00,
2013-04-13 23:13:00,37.0,-99.9,-100.00,North,-999,-999.0,-999.0,-999,0.00,,,0.51,,2013-04-14 04:13:00,
2013-04-13 23:23:00,37.0,-99.9,-100.00,North,-999,-999.0,-999.0,-999,0.00,,,0.51,,2013-04-14 04:23:00,
2013-04-13 23:30:00,37.0,-99.9,-100.00,North,-999,-999.0,-999.0,-999,0.01,,,0.52,,2013-04-14 04:30:00,
2013-04-13 23:53:00,37.0,-99.9,-100.00,North,-999,-999.0,-999.0,-999,0.01,,,0.52,,2013-04-14 04:53:00,